�N����,����,�~����,�C��,���x,�C��,����,���ϕ���,�ő�u�ԕ���,�ő厞����,���˗�,�I�_���x,�n�����x,�ő啗���N��,DTYPE
"23/10/27","00:10",0.0,12.2,92.7,1007.8,304.4,2.2,3.2,312.7,0.00,11.1,16.1,"00:06:22",1
"23/10/27","00:20",0.0,12.3,92.9,1008.1,311.9,1.7,2.6,318.8,0.00,11.2,16.2,"00:19:06",1
"23/10/27","00:30",0.0,12.3,93.0,1007.8,309.9,1.5,2.7,316.5,0.00,11.2,16.1,"00:20:12",1
"23/10/27","00:40",0.0,11.8,93.4,1008.1,310.1,1.7,2.5,321.2,0.00,10.8,16.0,"00:33:44",1
"23/10/27","00:50",0.0,11.5,93.6,1008.1,298.8,1.3,1.6,313.1,0.00,10.5,16.0,"00:41:58",1
"23/10/27","01:00",0.0,11.5,93.9,1008.1,307.2,1.7,1.9,317.5,0.00,10.6,16.1,"00:59:12",1
"23/10/27","01:10",0.0,11.2,94.0,1008.1,297.2,1.5,1.8,311.4,0.00,10.3,16.0,"01:00:16",1
"23/10/27","01:20",0.0,11.0,94.3,1008.3,298.3,1.6,2.0,321.9,0.00,10.2,15.9,"01:16:40",1
"23/10/27","01:30",0.0,10.9,94.5,1008.1,317.6,2.0,2.2,320.4,0.00,10.1,16.0,"01:22:32",1
"23/10/27","01:40",0.0,10.9,94.6,1007.8,308.8,2.0,2.4,324.7,0.00,10.1,15.9,"01:35:20",1
"23/10/27","01:50",0.0,10.8,94.9,1007.6,309.5,1.8,2.2,318.1,0.00,10.1,15.8,"01:44:40",1
"23/10/27","02:00",0.0,11.0,94.9,1007.8,313.5,1.8,2.6,315.5,0.00,10.3,15.9,"01:55:48",1
"23/10/27","02:10",0.0,10.7,94.9,1007.6,299.7,1.6,2.5,322.3,0.00,10.0,15.6,"02:00:08",1
"23/10/27","02:20",0.0,11.0,95.3,1007.6,318.8,1.7,2.1,324.2,0.00,10.3,15.8,"02:14:00",1
"23/10/27","02:30",0.0,10.7,95.2,1007.8,303.2,1.8,2.5,320.6,0.00,10.0,15.6,"02:21:24",1
"23/10/27","02:40",0.0,10.5,95.4,1007.8,306.4,0.7,1.4,283.5,0.00,9.8,15.7,"02:30:08",1
"23/10/27","02:50",0.0,10.6,95.6,1007.4,307.8,1.5,2.5,323.5,0.00,10.0,15.5,"02:48:32",1
"23/10/27","03:00",0.0,10.6,95.7,1007.8,315.5,2.0,2.8,320.3,0.00,10.0,15.6,"02:50:16",1
"23/10/27","03:10",0.0,10.4,95.8,1007.1,287.3,1.5,1.7,287.5,0.00,9.8,15.5,"03:08:08",1
"23/10/27","03:20",0.0,11.0,96.0,1007.1,298.2,1.8,2.8,316.8,0.00,10.4,15.6,"03:13:58",1
"23/10/27","03:30",0.0,11.4,96.0,1006.9,296.8,1.7,2.0,297.8,0.00,10.8,15.5,"03:28:50",1
"23/10/27","03:40",0.0,11.4,95.9,1007.4,298.8,1.6,2.2,320.2,0.00,10.8,15.2,"03:38:44",1
"23/10/27","03:50",0.0,11.1,96.0,1007.4,311.7,2.1,2.5,322.2,0.00,10.5,15.2,"03:47:04",1
"23/10/27","04:00",0.0,10.7,96.1,1007.6,301.9,1.5,2.2,315.5,0.00,10.1,15.4,"03:50:56",1
"23/10/27","04:10",0.0,10.7,96.4,1007.4,295.3,1.6,1.9,310.2,0.00,10.2,15.6,"04:09:32",1
"23/10/27","04:20",0.0,11.1,96.5,1007.6,296.3,1.8,2.8,325.8,0.00,10.6,15.3,"04:19:38",1
"23/10/27","04:30",0.0,11.1,96.4,1007.4,310.8,1.3,2.0,332.0,0.00,10.6,15.4,"04:20:40",1
"23/10/27","04:40",0.0,10.6,96.5,1007.6,297.1,1.3,1.8,301.8,0.00,10.1,15.5,"04:30:08",1
"23/10/27","04:50",0.0,10.6,96.6,1007.6,308.6,1.7,2.2,314.5,0.00,10.1,15.3,"04:43:18",1
"23/10/27","05:00",0.0,10.3,96.7,1007.4,307.0,1.7,2.0,313.6,0.00,9.8,15.3,"04:53:02",1
"23/10/27","05:10",0.0,10.1,96.8,1007.6,306.8,1.6,2.0,309.8,0.00,9.7,15.0,"05:03:36",1
"23/10/27","05:20",0.0,10.1,97.1,1007.4,313.2,1.5,1.8,310.9,0.00,9.7,15.3,"05:10:16",1
"23/10/27","05:30",0.0,10.0,97.0,1007.1,291.5,1.3,1.7,322.8,0.00,9.6,15.0,"05:20:16",1
"23/10/27","05:40",0.0,10.1,97.2,1007.1,300.7,1.5,2.1,318.7,0.00,9.7,15.1,"05:39:46",1
"23/10/27","05:50",0.0,10.1,97.2,1007.1,303.9,1.3,2.0,310.8,0.00,9.7,15.1,"05:41:30",1
"23/10/27","06:00",0.0,10.1,97.2,1006.9,311.4,1.6,2.2,319.5,0.00,9.7,15.1,"05:51:12",1
"23/10/27","06:10",0.0,9.6,97.3,1007.1,279.5,1.2,1.4,280.2,0.00,9.2,15.1,"06:03:30",1
"23/10/27","06:20",0.0,9.9,97.5,1007.1,292.6,1.5,1.8,301.7,0.00,9.6,14.9,"06:18:54",1
"23/10/27","06:30",0.0,10.3,97.4,1007.1,295.4,1.5,2.0,316.1,0.00,9.9,14.9,"06:20:48",1
"23/10/27","06:40",0.0,10.4,97.4,1007.4,291.1,1.2,1.7,312.1,0.00,10.0,15.0,"06:39:44",1
"23/10/27","06:50",0.0,10.6,97.4,1007.1,305.9,1.3,1.8,310.8,0.00,10.2,15.1,"06:41:20",1
"23/10/27","07:00",0.0,10.7,97.6,1007.6,293.1,1.1,1.7,317.3,0.01,10.4,14.8,"06:58:48",1
"23/10/27","07:10",0.0,11.0,97.6,1007.1,303.3,1.5,1.9,318.8,0.02,10.7,14.7,"07:05:04",1
"23/10/27","07:20",0.0,11.6,97.6,1007.4,295.8,0.7,1.4,307.1,0.03,11.3,14.9,"07:10:40",1
"23/10/27","07:30",0.0,12.3,97.5,1007.6,261.3,0.2,0.6,290.9,0.04,12.0,14.8,"07:23:28",1
"23/10/27","07:40",0.0,12.6,97.3,1007.8,329.4,0.6,1.1,323.7,0.04,12.2,14.7,"07:38:08",1
"23/10/27","07:50",0.0,13.1,97.4,1008.1,308.3,0.7,1.3,322.0,0.07,12.7,14.7,"07:43:04",1
"23/10/27","08:00",0.0,13.8,97.3,1007.8,313.5,1.2,2.0,319.7,0.09,13.4,14.7,"07:55:28",1
"23/10/27","08:10",0.0,14.1,97.0,1008.1,264.3,0.7,1.6,326.3,0.11,13.7,14.9,"08:00:40",1
"23/10/27","08:20",0.0,14.5,96.6,1008.3,280.3,0.6,1.2,265.3,0.08,14.0,14.8,"08:16:56",1
"23/10/27","08:30",0.0,15.0,96.6,1008.3,291.9,0.6,1.2,267.3,0.09,14.5,15.0,"08:21:20",1
"23/10/27","08:40",0.0,14.4,96.0,1008.1,268.8,0.6,1.4,316.3,0.06,13.8,15.0,"08:30:08",1
"23/10/27","08:50",0.0,15.0,96.2,1008.1,271.2,0.7,1.1,267.2,0.04,14.4,14.9,"08:42:48",1
"23/10/27","09:00",0.0,14.8,95.4,1007.8,251.3,0.5,1.0,247.9,0.09,14.1,15.1,"08:55:12",1
"23/10/27","09:10",0.0,15.8,96.0,1007.4,292.7,0.6,1.4,304.9,0.14,15.2,15.1,"09:01:44",1
"23/10/27","09:20",0.0,16.0,95.6,1007.6,308.1,0.8,1.8,329.3,0.12,15.3,15.2,"09:14:00",1
"23/10/27","09:30",0.0,16.0,94.9,1007.6,317.0,0.6,1.6,334.8,0.20,15.2,15.2,"09:27:52",1
"23/10/27","09:40",0.0,16.7,93.8,1007.4,295.9,0.6,1.4,334.4,0.27,15.7,15.3,"09:39:04",1
"23/10/27","09:50",0.0,17.1,91.8,1007.8,312.3,0.6,1.6,133.7,0.23,15.8,15.4,"09:40:48",1
"23/10/27","10:00",0.0,17.8,89.3,1007.4,304.4,0.5,1.3,318.6,0.20,16.1,15.5,"09:53:04",1
"23/10/27","10:10",0.0,18.3,83.6,1006.9,330.5,1.0,2.1,315.0,0.22,15.5,15.6,"10:02:56",1
"23/10/27","10:20",0.0,19.1,77.9,1006.9,327.7,0.5,0.9,103.0,0.26,15.2,15.4,"10:12:48",1
"23/10/27","10:30",0.0,20.1,72.6,1006.2,93.8,0.6,1.4,84.3,0.36,15.1,15.5,"10:24:00",1
"23/10/27","10:40",0.0,20.3,68.9,1006.0,222.5,1.0,1.9,203.8,0.33,14.4,15.8,"10:36:16",1
"23/10/27","10:50",0.0,20.6,69.3,1006.0,218.6,1.1,2.0,175.8,0.30,14.8,15.8,"10:48:32",1
"23/10/27","11:00",0.0,20.6,69.6,1005.7,231.8,1.3,2.9,232.8,0.38,14.9,15.8,"10:53:52",1
"23/10/27","11:10",0.0,21.2,67.7,1005.7,252.0,0.8,2.6,237.2,0.39,15.0,16.0,"11:00:02",1
"23/10/27","11:20",0.0,21.4,68.0,1005.7,231.8,1.1,2.4,239.1,0.33,15.3,16.1,"11:12:40",1
"23/10/27","11:30",0.0,21.3,67.3,1005.2,222.3,1.2,2.2,202.4,0.32,15.0,16.4,"11:23:12",1
"23/10/27","11:40",0.0,21.8,66.6,1004.8,243.6,0.8,3.2,246.6,0.35,15.4,16.3,"11:34:32",1
"23/10/27","11:50",0.0,22.5,65.9,1004.3,156.7,0.6,1.3,124.3,0.34,15.9,16.2,"11:46:56",1
"23/10/27","12:00",0.0,22.9,64.2,1003.8,175.4,1.2,2.5,193.1,0.41,15.8,16.4,"11:51:52",1
"23/10/27","12:10",0.0,23.4,62.6,1003.6,133.0,0.6,1.6,142.7,0.37,15.9,16.6,"12:00:08",1
"23/10/27","12:20",0.0,23.8,61.2,1003.6,127.8,1.0,1.9,117.1,0.39,15.9,16.6,"12:15:28",1
"23/10/27","12:30",0.0,23.3,59.4,1002.9,327.2,0.8,2.0,328.6,0.23,15.0,16.7,"12:28:08",1
"23/10/27","12:40",0.0,22.6,61.7,1003.1,353.7,1.2,2.6,342.2,0.12,14.9,16.9,"12:32:40",1
"23/10/27","12:50",0.0,22.2,62.8,1003.1,323.1,0.7,1.9,13.7,0.12,14.8,16.9,"12:41:04",1
"23/10/27","13:00",0.0,23.0,63.6,1002.9,209.5,0.5,1.2,178.9,0.28,15.8,17.0,"12:59:44",1
"23/10/27","13:10",0.0,23.8,60.3,1002.4,310.8,0.7,1.7,341.5,0.30,15.7,17.0,"13:03:12",1
"23/10/27","13:20",0.0,24.0,58.1,1002.2,250.0,0.7,1.9,238.6,0.26,15.3,17.2,"13:15:52",1
"23/10/27","13:30",0.0,23.9,57.0,1002.2,241.9,0.8,2.2,312.4,0.24,14.9,17.2,"13:29:52",1
"23/10/27","13:40",0.0,24.0,55.2,1001.9,334.5,1.6,3.4,344.9,0.25,14.5,17.2,"13:35:28",1
"23/10/27","13:50",0.0,23.3,55.9,1001.7,302.3,1.5,3.3,341.2,0.11,14.1,17.3,"13:40:40",1
"23/10/27","14:00",0.0,22.8,56.0,1001.7,295.1,1.6,2.9,290.4,0.10,13.6,17.3,"13:54:16",1
"23/10/27","14:10",0.0,22.8,57.3,1001.9,224.7,1.6,3.9,206.6,0.10,14.0,17.4,"14:04:56",1
"23/10/27","14:20",0.0,23.2,53.6,1001.7,286.1,1.5,4.1,237.3,0.16,13.3,17.6,"14:19:20",1
"23/10/27","14:30",0.0,23.3,53.2,1001.5,253.2,1.5,3.2,237.2,0.13,13.3,17.5,"14:23:20",1
"23/10/27","14:40",0.0,23.0,54.4,1001.2,212.3,1.5,2.7,222.2,0.10,13.4,17.5,"14:37:36",1
"23/10/27","14:50",0.0,22.4,58.1,1001.9,199.5,1.2,3.5,233.7,0.09,13.8,17.7,"14:49:52",1
"23/10/27","15:00",0.0,21.4,59.6,1002.2,211.6,1.3,3.3,203.0,0.07,13.3,17.7,"14:54:48",1
"23/10/27","15:10",0.0,21.0,60.6,1002.2,212.1,0.6,2.0,235.7,0.04,13.1,17.6,"15:01:12",1
"23/10/27","15:20",0.0,21.0,62.0,1001.9,318.2,0.8,1.3,330.4,0.04,13.5,17.5,"15:14:40",1
"23/10/27","15:30",0.0,21.0,63.2,1002.4,340.6,0.7,1.9,332.7,0.04,13.8,17.4,"15:26:08",1
"23/10/27","15:40",0.0,20.9,64.9,1002.2,324.7,1.3,2.1,340.2,0.04,14.1,17.8,"15:36:08",1
"23/10/27","15:50",0.0,20.6,60.6,1002.4,301.9,1.0,2.2,339.4,0.01,12.8,17.6,"15:45:44",1
"23/10/27","16:00",0.0,20.8,53.7,1003.1,306.6,1.7,3.7,343.6,0.00,11.1,17.6,"15:52:16",1
"23/10/27","16:10",0.2,19.0,66.1,1003.4,261.1,2.7,8.3,239.6,0.00,12.6,17.7,"16:05:28",1
"23/10/27","16:20",0.2,17.8,70.5,1004.1,255.4,3.1,7.1,234.7,0.00,12.4,17.8,"16:12:16",1
"23/10/27","16:30",0.0,17.3,72.5,1004.1,287.2,2.2,4.7,245.6,0.00,12.4,17.6,"16:24:28",1
"23/10/27","16:40",1.0,16.3,77.2,1004.3,284.4,2.1,4.3,263.7,0.00,12.3,17.6,"16:32:56",1
"23/10/27","16:50",1.0,15.7,82.4,1004.3,293.2,2.2,4.3,264.0,0.00,12.8,17.6,"16:41:20",1
"23/10/27","17:00",0.2,15.4,85.2,1005.0,312.4,2.2,4.1,272.8,0.00,13.0,17.6,"16:53:44",1
"23/10/27","17:10",0.2,15.2,87.1,1004.5,328.8,2.8,5.5,317.9,0.00,13.1,17.6,"17:05:22",1
"23/10/27","17:20",0.2,15.0,88.4,1004.3,324.1,2.2,3.5,330.9,0.00,13.1,17.4,"17:13:52",1
"23/10/27","17:30",0.2,14.9,89.3,1004.5,346.7,0.8,3.3,344.4,0.00,13.2,17.3,"17:20:32",1
"23/10/27","17:40",0.0,14.9,89.9,1004.8,252.3,1.0,1.8,240.5,0.00,13.3,17.3,"17:35:04",1
"23/10/27","17:50",0.2,14.8,90.4,1005.0,337.3,1.2,2.1,311.3,0.00,13.3,17.3,"17:40:02",1
"23/10/27","18:00",0.0,14.7,91.2,1005.5,310.4,2.0,3.2,327.2,0.00,13.3,17.2,"17:54:56",1
"23/10/27","18:10",0.0,14.6,91.7,1005.5,315.5,0.6,2.1,318.8,0.00,13.3,17.2,"18:01:12",1
"23/10/27","18:20",0.0,14.6,92.1,1005.5,308.6,1.6,3.5,331.7,0.00,13.4,17.1,"18:19:28",1
"23/10/27","18:30",0.0,14.1,92.5,1005.5,307.1,2.0,4.4,333.5,0.00,12.9,17.0,"18:22:40",1
"23/10/27","18:40",0.0,14.0,93.0,1005.7,329.9,2.1,3.6,316.5,0.00,12.9,17.0,"18:35:44",1
"23/10/27","18:50",0.0,13.8,93.3,1005.5,332.0,1.7,2.6,339.4,0.00,12.8,17.0,"18:44:24",1
"23/10/27","19:00",0.0,13.6,93.6,1005.5,330.7,1.5,2.5,325.6,0.00,12.6,16.8,"18:52:40",1
"23/10/27","19:10",0.0,13.4,93.9,1006.0,298.4,1.3,2.0,308.1,0.00,12.5,17.1,"19:01:28",1
"23/10/27","19:20",0.0,13.2,94.1,1005.7,249.3,0.5,1.1,307.5,0.00,12.3,17.0,"19:10:16",1
"23/10/27","19:30",0.0,13.2,94.5,1006.0,301.6,1.8,3.2,321.4,0.00,12.4,16.8,"19:27:44",1
"23/10/27","19:40",0.0,13.3,94.7,1006.0,325.6,2.3,3.6,336.1,0.00,12.5,16.9,"19:35:04",1
"23/10/27","19:50",0.0,13.0,94.8,1006.2,288.0,0.8,2.5,341.3,0.00,12.2,17.0,"19:40:48",1
"23/10/27","20:00",0.0,12.7,95.0,1006.2,290.4,1.2,1.6,315.6,0.00,12.0,17.1,"19:52:16",1
"23/10/27","20:10",0.0,12.5,95.2,1006.2,313.8,1.5,2.0,313.2,0.00,11.8,16.9,"20:07:20",1
"23/10/27","20:20",0.0,12.2,95.4,1006.4,293.5,1.1,1.9,314.2,0.00,11.5,16.9,"20:19:44",1
"23/10/27","20:30",0.0,12.3,95.6,1006.4,312.4,1.7,2.6,323.9,0.00,11.7,16.7,"20:26:48",1
"23/10/27","20:40",0.0,12.2,95.7,1006.4,288.7,1.3,2.2,319.7,0.00,11.6,16.6,"20:31:12",1
"23/10/27","20:50",0.0,12.1,95.9,1006.7,295.9,1.5,2.4,315.1,0.00,11.5,16.8,"20:48:48",1
"23/10/27","21:00",0.0,12.0,96.0,1006.7,291.2,1.3,2.1,334.1,0.00,11.4,16.7,"20:50:02",1
"23/10/27","21:10",0.0,12.0,96.2,1006.7,294.1,1.5,3.1,324.5,0.00,11.5,16.7,"21:03:52",1
"23/10/27","21:20",0.0,11.8,96.3,1006.4,273.5,1.2,1.7,271.4,0.00,11.3,16.7,"21:14:40",1
"23/10/27","21:30",0.0,11.8,96.5,1006.9,290.0,1.2,1.8,324.6,0.00,11.3,16.5,"21:25:36",1
"23/10/27","21:40",0.0,11.7,96.6,1006.7,318.3,1.7,2.4,314.2,0.00,11.2,16.4,"21:32:16",1
"23/10/27","21:50",0.0,11.3,96.6,1006.7,295.8,1.0,2.0,309.2,0.00,10.8,16.4,"21:41:28",1
"23/10/27","22:00",0.0,11.1,96.9,1006.4,320.6,0.8,1.4,305.5,0.00,10.7,16.5,"21:54:40",1
"23/10/27","22:10",0.0,10.9,96.9,1006.7,300.0,1.1,1.4,313.7,0.00,10.5,16.4,"22:09:46",1
"23/10/27","22:20",0.0,10.9,97.1,1006.4,299.9,1.2,1.8,324.2,0.00,10.5,16.3,"22:12:48",1
"23/10/27","22:30",0.0,11.1,97.2,1006.4,297.8,1.1,2.1,318.6,0.00,10.7,16.3,"22:22:08",1
"23/10/27","22:40",0.0,11.1,97.2,1006.4,312.2,1.5,2.2,319.4,0.00,10.7,16.3,"22:34:08",1
"23/10/27","22:50",0.0,11.1,97.4,1006.9,302.7,1.3,2.0,306.2,0.00,10.7,16.2,"22:47:14",1
"23/10/27","23:00",0.0,11.1,97.4,1006.4,281.1,1.1,1.7,321.2,0.00,10.7,16.2,"22:50:08",1
"23/10/27","23:10",0.0,11.1,97.4,1006.7,300.1,1.3,1.8,321.0,0.00,10.7,16.3,"23:07:44",1
"23/10/27","23:20",0.0,11.1,97.5,1006.7,277.3,1.2,1.6,267.2,0.00,10.8,16.0,"23:16:24",1
"23/10/27","23:30",0.0,11.0,97.6,1006.4,282.5,1.1,1.6,309.3,0.00,10.7,16.1,"23:25:46",1
"23/10/27","23:40",0.2,11.0,97.6,1006.4,293.1,1.3,2.1,315.9,0.00,10.7,16.0,"23:36:40",1
"23/10/27","23:50",0.0,11.1,97.8,1006.7,301.4,1.6,2.7,310.3,0.00,10.8,15.8,"23:47:52",1
"23/10/27","24:00",0.0,10.9,97.7,1006.7,308.6,1.1,2.1,331.6,0.00,10.6,16.0,"23:50:56",1
